Temperature
10 9 8 9 10 11 11 11 10 10 9 8 7 7 7 7 7 6 6 5 5 4 3 3 3 3 3 3 3 4 4 4 4 4 4 4 4 4 4 4 4 4 4 5
9 8 9 10 10 10 10 10 9 9 8 8 7 6 7 7 6 6 5 5 4 3 3 2 2 2 2 3 3 3 3 3 3 3 3 3 3 3 3 3 4 4 4 4
9 8 9 9 9 9 9 8 9 8 7 7 6 6 6 6 6 5 5 4 4 3 2 2 1 1 2 2 2 2 2 2 2 2 2 3 2 2 3 3 3 3 3 3
8 8 8 8 8 8 8 8 8 7 6 6 6 5 6 6 5 4 4 4 3 2 2 1 1 1 1 1 1 1 2 2 2 2 2 2 2 2 2 2 2 2 2 2
7 7 7 7 7 7 6 6 6 6 6 5 5 5 5 5 4 4 3 3 2 2 1 1 1 0 0 1 1 1 1 1 1 1 1 1 1 1 1 1 1 1 1 2
6 6 6 6 6 6 5 6 5 5 5 4 5 5 5 4 4 4 3 3 2 1 1 1 0 0 0 0 0 0 0 0 0 0 0 0 0 0 0 0 0 0 1 0
6 5 5 5 4 5 5 5 5 4 4 4 5 5 4 4 4 3 2 2 2 1 1 0 -0 -0 -0 -0 -0 -0 -0 -0 -1 -0 -0 -0 -1 -1 -1 -1 -1 -0 -0 -0
5 5 4 4 4 4 4 5 4 5 5 5 4 4 3 3 2 3 2 2 1 1 0 -0 -0 -1 -1 -1 -1 -1 -1 -1 -1 -1 -1 -1 -1 -1 -1 -1 -1 -1 -1 -1
5 4 3 3 3 4 4 3 4 4 4 3 4 3 2 2 1 1 1 1 0 0 -0 -0 -1 -1 -1 -1 -1 -1 -2 -2 -2 -2 -2 -2 -2 -2 -2 -2 -2 -2 -2 -2
4 3 3 2 2 2 3 3 3 3 3 4 4 4 3 1 0 -0 -0 -0 -0 -0 -0 -1 -1 -1 -2 -2 -2 -2 -2 -3 -3 -2 -2 -2 -3 -3 -3 -3 -3 -3 -3 -3
3 2 2 1 1 2 1 2 2 3 3 3 3 3 2 1 -0 -1 -1 -0 -1 -1 -1 -1 -1 -2 -2 -2 -2 -3 -3 -3 -3 -3 -3 -3 -3 -3 -3 -4 -4 -4 -4 -4
2 2 1 1 1 1 1 2 2 1 2 2 2 2 1 0 -0 -0 -1 -1 -1 -1 -2 -2 -2 -2 -3 -3 -3 -3 -3 -4 -4 -4 -4 -4 -4 -4 -4 -4 -4 -4 -4 -4
1 1 1 1 0 -1 -0 0 0 0 0 1 1 1 -0 -0 -0 -0 -1 -1 -1 -2 -2 -2 -3 -3 -3 -3 -4 -4 -4 -4 -4 -4 -5 -4 -5 -5 -5 -5 -5 -5 -5 -5
1 -0 0 1 1 -0 -1 -1 -1 -1 -1 -0 0 1 -0 -1 -1 -1 -1 -2 -2 -3 -3 -3 -3 -4 -4 -4 -4 -4 -4 -5 -5 -5 -5 -5 -5 -5 -5 -5 -5 -5 -5 -5
-1 -1 -1 -1 -0 -0 -1 -1 -1 -2 -1 -1 -0 -0 -0 -1 -2 -2 -2 -2 -3 -3 -4 -4 -4 -4 -5 -5 -5 -5 -5 -5 -5 -6 -6 -6 -6 -6 -6 -6 -6 -6 -6 -6
-2 -2 -2 -2 -1 -1 -1 -2 -2 -2 -2 -2 -1 -2 -2 -1 -2 -2 -2 -3 -4 -4 -4 -5 -5 -5 -5 -5 -6 -6 -6 -6 -6 -6 -6 -6 -6 -6 -6 -6 -6 -6 -6 -6
-3 -3 -2 -2 -2 -2 -2 -2 -2 -3 -3 -3 -2 -2 -3 -3 -3 -3 -3 -4 -4 -5 -5 -5 -6 -5 -6 -6 -6 -6 -6 -7 -7 -7 -7 -7 -7 -7 -7 -7 -7 -7 -7 -7
-3 -3 -3 -2 -3 -3 -2 -2 -2 -3 -3 -3 -3 -4 -4 -4 -4 -4 -4 -4 -5 -5 -5 -6 -6 -6 -6 -6 -7 -7 -7 -7 -7 -7 -7 -7 -7 -7 -7 -7 -7 -8 -8 -8
-3 -3 -3 -3 -3 -2 -2 -3 -4 -4 -4 -4 -5 -5 -5 -5 -5 -5 -4 -5 -5 -5 -6 -6 -6 -6 -7 -7 -7 -7 -7 -8 -8 -8 -8 -8 -8 -8 -8 -8 -8 -8 -8 -8
-4 -4 -4 -3 -3 -3 -2 -4 -4 -4 -5 -5 -5 -6 -6 -6 -6 -6 -6 -6 -6 -6 -6 -7 -7 -7 -7 -8 -8 -8 -8 -8 -8 -9 -9 -9 -9 -9 -9 -9 -9 -9 -9 -9
-5 -5 -5 -4 -3 -3 -5 -5 -4 -4 -4 -5 -5 -6 -6 -7 -7 -7 -7 -7 -7 -7 -7 -7 -7 -8 -8 -8 -8 -9 -9 -9 -9 -9 -9 -9 -9 -9 -9 -9 -9 -9 -9 -9
-5 -5 -5 -4 -4 -4 -6 -6 -6 -6 -6 -6 -6 -6 -7 -7 -7 -7 -8 -8 -8 -8 -8 -8 -8 -8 -8 -9 -9 -9 -9 -9 -10 -10 -10 -10 -10 -10 -10 -10 -10 -10 -10 -10
-5 -5 -5 -5 -5 -5 -6 -6 -6 -6 -6 -7 -7 -7 -7 -8 -8 -8 -8 -8 -9 -9 -9 -9 -9 -9 -9 -9 -10 -10 -10 -10 -10 -10 -10 -10 -10 -10 -10 -10 -10 -10 -11 -11
-6 -6 -6 -6 -7 -6 -6 -6 -6 -7 -7 -7 -8 -8 -8 -9 -9 -9 -9 -9 -9 -9 -9 -9 -10 -10 -10 -10 -10 -10 -10 -11 -10 -10 -10 -11 -11 -11 -11 -11 -11 -11 -11 -11
-6 -8 -8 -8 -8 -7 -7 -7 -7 -7 -8 -8 -8 -8 -9 -9 -9 -9 -10 -10 -10 -10 -10 -10 -10 -10 -11 -11 -11 -11 -11 -11 -11 -11 -11 -11 -11 -11 -11 -11 -11 -12 -12 -12
-8 -9 -8 -7 -8 -8 -8 -8 -8 -8 -8 -9 -9 -9 -9 -10 -10 -10 -10 -10 -11 -11 -11 -11 -11 -11 -11 -11 -11 -11 -11 -12 -12 -12 -12 -12 -12 -12 -12 -12 -12 -12 -12 -12
Wind_Speed
4 3 4 5 8 7 5 5 5 2 2 4 7 7 6 6 6 6 6 5 5 5 5 5 4 4 4 4 4 4 3 3 3 2 2 1 1 2 3 4 4 4 4 4
3 6 6 3 2 4 6 6 6 3 1 3 4 7 7 8 8 7 6 5 6 5 5 4 4 4 3 3 3 3 3 3 3 1 1 1 1 1 2 3 3 3 3 3
6 1 1 2 3 4 6 6 6 4 2 3 4 7 8 6 6 6 6 5 5 6 6 5 4 3 3 3 2 2 2 3 3 2 2 2 2 1 1 1 1 2 2 2
3 1 2 3 3 4 6 2 2 2 2 4 5 6 5 5 6 6 6 6 5 5 5 4 4 3 2 2 2 2 2 3 2 2 2 2 2 1 0 1 0 1 2 2
2 0 1 3 3 3 1 2 2 3 4 4 5 5 6 5 6 7 7 7 5 5 5 5 4 3 2 2 3 2 2 3 2 2 2 1 1 1 1 1 1 1 1 1
2 1 1 1 1 1 1 1 2 2 2 5 8 8 6 4 6 6 7 6 6 5 5 4 4 3 3 3 3 2 2 2 2 2 2 1 1 1 2 1 1 0 0 1
3 3 1 0 1 1 1 1 1 2 4 7 4 6 5 1 2 5 7 7 5 5 5 4 4 3 3 3 3 2 2 2 2 2 1 1 1 1 2 2 1 1 1 1
3 4 3 2 2 2 4 3 4 5 4 3 2 5 3 1 2 4 5 6 5 5 4 4 4 3 3 3 3 2 2 1 2 2 1 1 1 1 1 1 1 2 1 1
3 2 2 1 2 1 3 5 2 2 3 4 5 4 3 1 2 3 4 4 4 4 4 4 4 4 4 4 3 3 2 2 2 2 1 2 1 1 1 1 1 1 1 1
3 3 1 1 1 3 3 2 1 3 4 6 6 5 4 3 4 3 4 5 4 3 4 4 3 3 3 3 2 2 2 2 2 1 1 1 1 1 1 1 1 1 1 1
2 2 1 2 5 4 3 2 3 3 4 4 5 3 1 3 4 4 4 4 3 3 3 3 2 2 3 2 2 2 2 2 2 2 2 1 1 1 2 2 2 1 1 1
1 1 4 4 1 2 1 4 4 4 5 4 4 5 2 3 3 3 3 3 3 3 2 2 2 2 2 2 2 2 2 2 2 2 2 2 2 2 2 2 2 2 2 2
1 1 2 3 1 1 2 3 3 2 2 4 5 5 1 3 2 1 1 2 2 2 3 2 2 2 2 1 1 1 1 1 1 1 2 2 3 3 3 3 2 2 3 3
1 2 5 6 4 1 3 4 4 4 4 6 7 8 5 3 2 2 1 1 2 2 2 2 2 1 1 1 1 1 1 1 2 2 2 3 3 3 3 3 3 3 3 3
0 3 5 7 6 4 6 6 6 8 9 8 8 8 8 5 4 3 1 1 1 1 1 1 1 1 1 1 1 1 1 2 2 2 3 3 3 3 3 3 3 3 3 3
1 3 3 7 6 5 8 8 9 10 9 11 11 12 7 5 4 3 2 1 2 2 2 1 1 1 1 2 2 2 2 2 1 2 3 3 2 2 3 3 3 3 3 3
2 2 3 5 3 4 8 7 9 6 6 7 10 9 5 5 4 4 3 2 2 2 2 2 2 2 2 2 1 2 2 1 2 2 3 2 2 3 3 3 3 3 3 3
4 3 3 3 2 7 6 0 3 6 6 6 5 4 4 4 4 3 1 1 2 2 2 2 1 1 1 0 0 1 1 1 1 2 2 2 3 3 2 2 3 3 3 3
4 4 3 3 5 8 3 1 1 3 5 2 3 4 4 4 3 3 3 3 2 2 2 1 1 1 1 1 0 1 0 0 1 2 2 2 2 2 2 3 3 3 3 3
1 2 4 4 5 6 3 1 1 1 4 2 1 3 2 3 2 3 4 4 4 3 2 2 2 2 1 1 1 1 0 1 2 2 2 2 2 2 3 3 3 3 3 4
1 3 5 6 6 6 2 1 1 2 4 3 2 2 1 2 3 3 3 3 3 3 2 2 2 1 1 1 1 0 1 2 2 2 2 2 2 3 3 3 4 4 4 4
5 4 4 4 5 6 1 2 3 3 2 2 2 2 2 3 3 2 2 2 2 3 2 2 1 1 2 1 1 1 2 2 2 1 2 2 3 3 3 3 4 4 4 4
5 4 3 5 5 1 3 3 2 0 2 3 3 3 2 3 3 3 2 2 2 2 2 2 1 1 2 1 0 2 3 2 1 2 2 3 3 3 4 4 4 4 4 4
2 0 2 4 4 2 1 1 1 2 2 3 3 3 2 3 3 2 2 2 2 2 2 2 1 1 2 2 2 2 2 2 2 2 3 3 3 3 4 4 4 4 4 4
2 2 3 5 4 4 2 1 2 2 2 3 3 2 2 2 3 2 2 2 2 2 2 1 1 2 3 2 2 2 2 2 2 3 3 3 4 4 4 4 4 5 5 6
2 3 4 6 3 2 4 2 2 2 3 3 3 3 3 2 3 2 2 2 2 2 2 2 2 3 3 3 3 3 2 2 2 3 3 3 3 3 4 4 5 9 10 12
Wind_Direction
179 197 213 220 222 253 288 275 268 270 201 215 224 231 221 207 200 201 198 184 165 148 122 109 103 92 96 94 93 90 85 81 79 96 113 116 113 91 70 63 67 66 60 56
188 225 241 262 266 271 276 271 268 263 198 231 249 251 236 215 213 205 191 174 157 144 131 123 114 99 100 103 103 103 99 98 92 81 82 110 122 119 96 69 67 65 61 57
216 234 258 248 245 244 255 248 256 261 271 238 272 274 232 212 196 186 175 165 155 154 150 138 125 112 103 113 124 126 112 105 92 79 68 92 92 76 76 74 62 49 61 57
239 268 263 228 245 248 255 280 275 271 269 247 201 276 237 197 196 189 177 165 160 149 140 139 134 129 125 127 119 115 116 111 100 98 101 124 130 146 157 150 100 43 68 47
233 122 247 238 259 275 256 9 323 280 257 281 232 247 264 188 208 203 186 169 156 148 142 144 143 144 128 121 125 122 119 115 107 105 109 124 143 126 110 107 110 85 50 42
248 331 332 279 352 2 75 350 298 254 231 259 225 215 259 210 212 186 169 158 154 146 142 144 138 128 122 113 116 120 125 114 116 119 123 116 130 135 128 132 155 172 119 6
232 198 174 68 126 168 211 156 251 234 219 242 216 212 242 218 156 154 158 155 150 152 154 154 149 150 151 143 137 135 134 133 135 140 147 150 143 162 178 187 191 190 207 238
256 245 171 180 210 196 216 206 204 228 241 259 254 234 234 148 81 103 130 141 149 161 160 163 166 171 170 164 155 152 160 167 164 168 182 164 143 170 209 215 200 202 218 243
257 255 78 59 332 276 206 223 258 270 286 276 244 229 258 185 151 140 143 149 168 173 168 169 171 174 172 173 171 171 184 193 193 190 191 179 167 177 209 235 228 222 241 286
317 285 208 92 332 295 287 296 178 202 233 251 254 230 237 203 212 194 180 182 185 184 181 173 173 168 163 164 163 174 192 207 215 203 210 227 188 201 222 219 226 248 261 292
329 239 223 178 209 219 201 234 226 237 239 237 265 257 353 175 181 188 194 188 191 195 186 179 169 148 145 154 171 185 192 197 214 225 227 230 223 222 222 224 230 246 267 260
310 258 251 232 215 2 236 214 191 209 246 233 251 260 30 71 129 155 182 187 184 178 177 180 169 154 150 166 181 191 199 210 225 231 234 233 231 226 219 227 233 247 247 258
23 175 284 285 277 357 281 265 242 246 266 242 241 257 19 54 50 75 166 169 168 169 170 166 163 173 176 175 177 185 209 226 239 242 236 235 234 230 228 225 228 237 240 248
40 223 218 240 275 218 245 242 219 206 229 248 241 260 287 305 305 306 185 159 164 177 186 187 185 192 182 173 179 196 243 243 244 242 245 243 238 233 232 226 230 236 240 238
85 251 253 269 280 268 260 248 216 219 228 239 258 267 279 276 275 283 267 195 179 192 223 224 224 224 214 189 192 210 241 245 251 247 250 251 243 236 232 231 233 237 243 250
200 260 283 273 261 263 269 255 236 239 243 253 268 274 286 297 316 315 301 214 226 253 251 260 261 258 241 216 211 220 233 243 239 247 258 263 253 247 242 235 232 234 239 246
200 214 248 265 278 295 269 237 218 225 229 225 246 260 295 308 300 288 277 250 250 267 284 275 270 249 246 232 211 216 230 231 233 247 260 263 255 252 250 245 240 239 242 245
197 221 241 270 295 253 247 243 200 219 238 231 249 278 304 301 310 305 307 321 301 296 297 293 297 307 315 278 214 199 213 215 237 254 261 260 254 249 246 246 250 250 250 248
219 210 234 237 252 264 255 240 181 219 265 249 257 293 324 344 335 322 8 14 345 333 331 336 11 1 13 360 0 95 82 244 263 269 269 265 254 253 254 257 259 258 257 259
281 226 231 237 246 250 250 283 343 95 271 316 289 282 320 8 318 291 351 6 4 9 19 20 36 40 26 349 48 92 269 280 276 278 281 278 266 260 258 259 261 264 263 263
184 218 225 236 246 259 265 280 103 175 263 342 354 308 311 251 249 297 347 360 6 15 25 28 37 23 347 1 56 37 297 279 282 293 294 293 283 270 262 262 259 257 261 263
193 202 211 217 233 252 155 118 184 233 335 350 339 325 292 281 307 325 339 347 360 3 8 19 9 342 346 2 30 313 290 286 301 311 306 297 291 280 277 271 270 263 256 259
210 209 215 211 226 261 150 177 213 16 317 317 317 310 293 285 290 299 315 330 338 343 344 351 343 328 331 332 291 273 290 304 311 306 297 292 291 284 276 268 268 265 257 257
230 193 245 263 266 276 253 264 344 350 306 309 306 300 292 275 283 294 299 309 315 317 323 335 340 314 305 309 304 274 293 306 302 289 288 288 284 279 274 270 266 263 257 257
254 189 252 264 284 315 295 294 316 314 321 314 316 301 283 275 283 276 279 288 295 309 316 316 296 285 288 295 293 293 296 291 286 286 286 288 284 279 277 272 263 265 254 258
224 211 224 248 259 256 280 311 319 304 296 291 299 308 306 277 271 281 281 284 297 308 318 316 305 299 296 297 292 291 283 266 266 283 288 286 285 281 279 281 286 279 274 276
Height
1486 1489 1489 1487 1486 1484 1483 1484 1486 1488 1489 1492 1493 1494 1494 1495 1496 1497 1498 1500 1501 1502 1504 1505 1506 1507 1508 1509 1511 1512 1513 1514 1516 1517 1518 1519 1520 1522 1523 1524 1525 1526 1527 1528
1486 1488 1485 1483 1484 1484 1485 1486 1487 1489 1490 1491 1493 1491 1490 1490 1491 1492 1494 1496 1498 1500 1502 1503 1504 1505 1505 1507 1508 1509 1511 1512 1513 1515 1516 1517 1518 1519 1521 1522 1522 1523 1524 1525
1483 1485 1483 1483 1484 1485 1486 1487 1487 1489 1491 1491 1495 1491 1486 1484 1486 1489 1491 1493 1496 1497 1499 1500 1501 1502 1503 1504 1505 1507 1508 1509 1511 1512 1513 1515 1516 1517 1517 1518 1519 1520 1521 1522
1482 1483 1483 1483 1485 1485 1487 1485 1486 1489 1493 1494 1493 1495 1482 1482 1484 1486 1488 1490 1492 1495 1497 1498 1499 1500 1501 1502 1503 1505 1506 1507 1508 1509 1510 1511 1512 1512 1513 1515 1516 1517 1518 1518
1483 1484 1484 1485 1486 1485 1487 1487 1488 1490 1492 1495 1492 1496 1483 1480 1483 1484 1485 1487 1490 1493 1494 1496 1497 1498 1499 1500 1501 1502 1503 1504 1505 1506 1507 1508 1509 1510 1511 1512 1512 1513 1514 1515
1484 1485 1485 1485 1486 1487 1488 1489 1490 1491 1494 1501 1489 1492 1481 1481 1478 1478 1482 1485 1488 1490 1493 1494 1495 1496 1497 1498 1499 1500 1501 1501 1502 1503 1504 1505 1505 1506 1507 1508 1508 1509 1510 1511
1483 1485 1485 1486 1488 1489 1489 1493 1496 1496 1500 1492 1481 1482 1481 1476 1474 1475 1479 1483 1486 1488 1490 1492 1493 1494 1494 1495 1496 1497 1498 1498 1499 1500 1501 1502 1502 1502 1503 1504 1504 1505 1505 1506
1483 1485 1486 1487 1487 1489 1490 1489 1493 1493 1486 1481 1486 1483 1480 1476 1475 1476 1478 1481 1484 1486 1488 1490 1491 1491 1492 1492 1493 1493 1494 1495 1496 1496 1497 1498 1498 1499 1499 1500 1500 1501 1501 1502
1484 1484 1487 1487 1487 1488 1487 1489 1486 1489 1489 1491 1481 1479 1479 1476 1476 1477 1478 1480 1482 1484 1486 1487 1488 1489 1489 1489 1490 1490 1491 1491 1492 1493 1493 1494 1494 1495 1495 1496 1496 1497 1497 1498
1484 1488 1487 1489 1489 1488 1488 1487 1491 1491 1490 1486 1475 1474 1476 1478 1477 1477 1478 1479 1481 1482 1484 1485 1485 1486 1486 1486 1487 1487 1487 1488 1488 1489 1490 1490 1490 1491 1491 1492 1492 1492 1493 1493
1486 1490 1491 1491 1491 1489 1491 1490 1488 1487 1484 1484 1481 1478 1472 1472 1474 1476 1477 1478 1479 1480 1481 1482 1483 1483 1483 1483 1483 1484 1484 1484 1485 1485 1485 1486 1486 1487 1487 1487 1488 1488 1488 1489
1487 1489 1490 1488 1487 1487 1487 1486 1488 1491 1488 1484 1484 1483 1473 1472 1472 1474 1475 1476 1477 1478 1479 1479 1480 1480 1480 1480 1480 1480 1480 1481 1481 1481 1481 1481 1482 1482 1483 1483 1483 1484 1484 1485
1488 1491 1492 1488 1491 1492 1490 1488 1487 1488 1488 1486 1484 1482 1474 1473 1473 1473 1474 1475 1475 1475 1476 1476 1477 1477 1477 1477 1477 1477 1477 1477 1477 1477 1477 1477 1477 1477 1478 1479 1479 1480 1480 1480
1488 1490 1491 1488 1482 1487 1490 1488 1488 1490 1491 1486 1480 1476 1475 1474 1473 1473 1473 1473 1473 1473 1474 1474 1474 1474 1474 1473 1473 1473 1473 1473 1473 1473 1473 1472 1473 1473 1474 1474 1475 1476 1476 1476
1489 1490 1488 1485 1483 1484 1484 1484 1485 1487 1484 1483 1476 1474 1472 1472 1472 1471 1471 1471 1471 1471 1471 1471 1471 1471 1470 1470 1470 1470 1469 1469 1469 1469 1468 1468 1468 1469 1469 1470 1471 1471 1472 1472
1490 1491 1489 1487 1482 1482 1482 1480 1481 1481 1481 1480 1476 1474 1470 1469 1470 1469 1469 1469 1468 1468 1468 1468 1468 1468 1467 1467 1466 1466 1466 1466 1465 1465 1465 1464 1464 1465 1465 1465 1466 1467 1467 1468
1490 1492 1490 1485 1483 1482 1482 1476 1476 1477 1475 1476 1475 1471 1468 1468 1468 1467 1466 1466 1466 1466 1466 1465 1465 1465 1464 1464 1463 1463 1463 1462 1462 1461 1461 1461 1461 1461 1461 1461 1462 1462 1463 1464
1488 1490 1489 1486 1487 1487 1472 1469 1468 1469 1470 1470 1468 1467 1467 1467 1466 1465 1464 1463 1463 1463 1463 1462 1462 1461 1461 1461 1460 1460 1459 1459 1458 1458 1458 1458 1457 1457 1457 1458 1458 1458 1459 1459
1484 1487 1486 1486 1483 1474 1469 1469 1469 1471 1469 1467 1467 1466 1466 1465 1463 1462 1462 1462 1461 1461 1460 1460 1459 1459 1458 1458 1457 1457 1456 1456 1455 1455 1455 1454 1454 1454 1454 1454 1454 1454 1455 1455
1484 1485 1487 1482 1480 1476 1469 1469 1466 1469 1470 1465 1465 1465 1465 1464 1466 1463 1461 1460 1459 1459 1458 1457 1456 1456 1455 1455 1454 1454 1453 1453 1453 1452 1452 1451 1451 1451 1451 1451 1451 1451 1451 1451
1487 1487 1486 1482 1479 1472 1471 1467 1467 1473 1469 1466 1464 1464 1464 1464 1464 1462 1460 1459 1458 1457 1456 1455 1454 1453 1453 1453 1452 1451 1451 1450 1450 1450 1449 1449 1448 1448 1448 1447 1447 1447 1447 1447
1483 1484 1483 1480 1478 1474 1470 1469 1471 1469 1466 1465 1464 1464 1463 1462 1461 1459 1458 1457 1456 1455 1454 1453 1452 1451 1451 1450 1450 1448 1448 1448 1447 1447 1446 1446 1446 1445 1445 1444 1443 1443 1443 1442
1476 1476 1475 1474 1473 1468 1467 1466 1466 1466 1465 1464 1463 1462 1461 1460 1458 1457 1456 1455 1454 1453 1452 1451 1450 1449 1448 1448 1447 1446 1446 1445 1445 1444 1443 1443 1442 1442 1441 1441 1440 1439 1439 1438
1473 1473 1473 1471 1467 1466 1465 1464 1464 1464 1463 1462 1461 1460 1459 1457 1456 1455 1453 1452 1451 1451 1449 1448 1447 1446 1445 1445 1444 1444 1443 1442 1442 1441 1440 1440 1439 1438 1438 1437 1436 1436 1435 1434
1471 1472 1472 1470 1466 1464 1463 1462 1462 1461 1460 1459 1458 1457 1456 1455 1453 1452 1451 1450 1449 1448 1447 1446 1445 1443 1442 1442 1441 1441 1440 1439 1438 1438 1437 1436 1435 1434 1434 1433 1432 1432 1431 1431
1469 1470 1471 1466 1464 1464 1462 1461 1460 1459 1458 1457 1455 1454 1453 1452 1451 1450 1449 1448 1447 1445 1444 1443 1442 1441 1440 1439 1438 1438 1437 1436 1435 1434 1433 1432 1431 1430 1430 1429 1428 1427 1427 1427